DW2380 Paimio FI current weather conditions

sailwx.info

Wind from 360 at 0 knots gusting 4

Air temperature 13.9° C
Dewpoint 12.8° C

Last reported at 2017-Aug-19 23:57 UTC.
Time now 2017-Aug-20 00:25 UTC

Location: N 60°28' E 022°40'.
View on Google Maps.

See reports from other nearby stations

  
Tides and Currents Weather Stations Pressure Air Temp Water Temp Dewpoint Dewpoint Depression Visibility Wind Speed Wind Dir Waves Ship Positions
date/time (UTC)wind fromknots sea level pressurealtimeterstation pressurevisibilityair tempwater tempwave heightnotes
2017-Aug-19 23:57 360 0 gusting 4 13.9
2017-Aug-19 23:42 360 2 gusting 3 13.9
2017-Aug-19 23:26 360 14.4
2017-Aug-19 23:11 360 14.4
2017-Aug-19 22:56 360 1 gusting 4 14.4
2017-Aug-19 22:41 360 2 gusting 7 14.4
2017-Aug-19 22:27 360 15.0
2017-Aug-19 22:11 360 15.0
2017-Aug-19 21:56 360 1 gusting 5 15.0
2017-Aug-19 21:41 360 15.0
2017-Aug-19 21:26 360 2 gusting 6 15.6
2017-Aug-19 21:11 360 2 gusting 6 15.6
2017-Aug-19 20:56 360 2 gusting 6 15.6
2017-Aug-19 20:41 360 3 gusting 6 15.6
2017-Aug-19 20:24 360 2 gusting 6 15.6
2017-Aug-19 20:09 360 3 gusting 7 15.6
2017-Aug-19 19:54 360 3 gusting 9 16.1
2017-Aug-19 19:39 360 2 gusting 7 16.1
2017-Aug-19 19:25 360 4 gusting 9 16.1
2017-Aug-19 19:10 360 3 gusting 6 16.7
2017-Aug-19 18:54 360 5 gusting 9 16.7
2017-Aug-19 18:39 360 3 gusting 11 16.7
2017-Aug-19 18:23 360 3 gusting 10 16.7
2017-Aug-19 18:08 360 4 gusting 8 16.7
2017-Aug-19 17:54 360 5 gusting 8 16.7
2017-Aug-19 17:38 360 4 gusting 7 16.7
2017-Aug-19 17:23 360 4 gusting 6 17.2
2017-Aug-19 17:08 360 5 gusting 9 17.2
2017-Aug-19 16:52 360 6 gusting 11 17.2
2017-Aug-19 16:37 360 7 gusting 13 17.8
2017-Aug-19 16:22 360 8 gusting 15 17.8
2017-Aug-19 16:07 360 7 gusting 13 18.3
2017-Aug-19 15:52 360 9 gusting 17 18.9
2017-Aug-19 15:37 360 7 gusting 16 19.4
2017-Aug-19 15:22 360 6 gusting 13 18.9
2017-Aug-19 15:07 360 4 gusting 13 18.3
2017-Aug-19 14:51 360 6 gusting 19 18.3
2017-Aug-19 14:36 360 7 gusting 23 18.3
2017-Aug-19 14:22 360 11 gusting 19 18.3
2017-Aug-19 14:06 360 6 gusting 16 17.8
2017-Aug-19 13:51 360 8 gusting 17 17.8
2017-Aug-19 13:36 360 13 gusting 21 17.8
2017-Aug-19 13:21 360 15 gusting 25 18.3
2017-Aug-19 13:06 360 14 gusting 22 18.9
2017-Aug-19 12:51 360 8 gusting 19 18.9
2017-Aug-19 12:36 360 7 gusting 17 18.9
2017-Aug-19 12:21 360 9 gusting 17 18.9
2017-Aug-19 12:06 360 6 gusting 17 18.9
2017-Aug-19 11:51 360 9 gusting 17 18.9
2017-Aug-19 11:34 360 9 gusting 15 18.9
2017-Aug-19 11:19 360 6 gusting 19 18.9
2017-Aug-19 11:04 360 10 gusting 20 18.9
2017-Aug-19 10:49 360 11 gusting 18 18.9
2017-Aug-19 10:34 360 5 gusting 13 18.3
2017-Aug-19 10:19 360 9 gusting 16 18.3
2017-Aug-19 10:04 360 7 gusting 15 18.3
2017-Aug-19 09:48 360 6 gusting 14 18.3
2017-Aug-19 09:33 360 5 gusting 9 18.3
2017-Aug-19 09:18 360 5 gusting 14 17.8
2017-Aug-19 09:03 360 4 gusting 13 17.2
2017-Aug-19 08:48 360 4 gusting 8 17.2
2017-Aug-19 08:33 360 4 gusting 11 17.2
2017-Aug-19 08:17 360 1 gusting 7 17.2
2017-Aug-19 08:02 360 4 gusting 8 16.7
2017-Aug-19 07:47 360 3 gusting 8 17.2
2017-Aug-19 07:32 360 3 gusting 8 17.2
2017-Aug-19 07:17 360 2 gusting 9 17.2
2017-Aug-19 07:02 360 5 gusting 10 17.2
2017-Aug-19 06:46 360 1 gusting 10 17.2
2017-Aug-19 06:31 360 2 gusting 10 16.7
2017-Aug-19 06:16 360 4 gusting 8 16.7
2017-Aug-19 06:01 360 1 gusting 6 16.7
2017-Aug-19 05:46 360 3 gusting 8 16.7
2017-Aug-19 05:31 360 3 gusting 8 16.7
2017-Aug-19 05:17 360 16.1
2017-Aug-19 05:01 360 0 gusting 5 16.1
2017-Aug-19 04:46 360 0 gusting 6 16.1
2017-Aug-19 04:31 360 16.1
2017-Aug-19 04:16 360 2 gusting 5 16.1
2017-Aug-19 04:00 360 16.1
2017-Aug-19 03:44 360 0 gusting 5 15.6
2017-Aug-19 03:29 360 15.6
2017-Aug-19 03:19 360 15.6
2017-Aug-19 02:59 360 15.6
2017-Aug-19 02:44 360 15.6
2017-Aug-19 02:28 360 15.6
2017-Aug-19 02:13 360 15.6
2017-Aug-19 01:58 360 15.6
2017-Aug-19 01:43 360 16.1
2017-Aug-19 01:28 360 16.1
2017-Aug-19 01:14 360 16.1
2017-Aug-19 00:58 360 16.1
2017-Aug-19 00:42 360 16.1
2017-Aug-19 00:27 360 16.1
2017-Aug-19 00:12 360 0 gusting 6 16.1
2017-Aug-18 23:57 360 2 gusting 7 16.1
2017-Aug-18 23:42 360 5 gusting 7 16.1
2017-Aug-18 23:27 360 5 gusting 11 16.1
2017-Aug-18 23:12 360 0 gusting 4 16.1
2017-Aug-18 22:56 360 1 gusting 6 16.1
2017-Aug-18 22:41 360 0 gusting 5 15.6
2017-Aug-18 22:26 360 15.6
2017-Aug-18 22:11 360 0 gusting 4 15.6
2017-Aug-18 21:56 360 15.6
2017-Aug-18 21:41 360 15.6
2017-Aug-18 21:26 360 15.6
2017-Aug-18 21:12 360 15.0
2017-Aug-18 20:56 360 15.0
2017-Aug-18 20:41 360 0 gusting 4 15.0
2017-Aug-18 20:26 360 15.0
2017-Aug-18 20:12 360 1 gusting 6 15.0
2017-Aug-18 19:56 360 15.0
2017-Aug-18 19:39 360 15.0
2017-Aug-18 19:24 360 15.0
2017-Aug-18 19:09 360 1 gusting 6 15.0
2017-Aug-18 18:54 360 1 gusting 8 15.0
2017-Aug-18 18:39 360 2 gusting 7 15.0
2017-Aug-18 18:24 360 0 gusting 6 15.0
2017-Aug-18 18:08 360 1 gusting 6 15.0
2017-Aug-18 17:53 360 5 gusting 8 15.0
2017-Aug-18 17:38 360 3 gusting 8 15.0
2017-Aug-18 17:23 360 4 gusting 10 15.6
2017-Aug-18 17:08 360 3 gusting 10 15.6
2017-Aug-18 16:53 360 2 gusting 8 15.6
2017-Aug-18 16:37 360 5 gusting 8 16.1
2017-Aug-18 16:23 360 16.1
2017-Aug-18 16:07 360 3 gusting 10 16.1
2017-Aug-18 15:52 360 6 gusting 13 16.7
2017-Aug-18 15:37 360 6 gusting 11 16.7
2017-Aug-18 15:22 360 3 gusting 9 17.2
2017-Aug-18 15:07 360 4 gusting 9 17.8
2017-Aug-18 14:51 360 4 gusting 12 17.8
2017-Aug-18 14:36 360 5 gusting 11 18.3
2017-Aug-18 14:21 360 6 gusting 16 18.9
2017-Aug-18 14:06 360 6 gusting 13 19.4
2017-Aug-18 13:51 360 3 gusting 6 18.9
2017-Aug-18 13:36 360 1 gusting 5 18.9
2017-Aug-18 13:21 360 2 gusting 7 19.4
2017-Aug-18 13:06 360 4 gusting 8 19.4
2017-Aug-18 12:51 360 7 gusting 13 20.0
2017-Aug-18 12:36 360 5 gusting 9 20.0
2017-Aug-18 12:21 360 6 gusting 10 20.0
2017-Aug-18 12:06 360 5 gusting 10 20.0
2017-Aug-18 11:51 360 6 gusting 12 20.0
2017-Aug-18 11:34 360 5 gusting 9 20.0
2017-Aug-18 11:19 360 3 gusting 7 20.0
2017-Aug-18 11:04 360 3 gusting 9 20.0
2017-Aug-18 10:49 360 3 gusting 9 20.0
2017-Aug-18 10:34 360 6 gusting 11 20.6
2017-Aug-18 10:19 360 5 gusting 11 21.1
2017-Aug-18 10:03 360 7 gusting 14 21.1
2017-Aug-18 09:48 360 5 gusting 12 21.1
2017-Aug-18 09:33 360 4 gusting 10 20.6
2017-Aug-18 09:18 360 5 gusting 11 20.0
2017-Aug-18 09:03 360 5 gusting 9 18.9
2017-Aug-18 08:48 360 1 gusting 8 18.3
2017-Aug-18 08:32 360 3 gusting 8 17.8
2017-Aug-18 08:17 360 2 gusting 9 17.8
2017-Aug-18 08:02 360 0 gusting 6 17.8
2017-Aug-18 07:47 360 3 gusting 6 17.8
2017-Aug-18 07:32 360 2 gusting 6 17.8
2017-Aug-18 07:17 360 1 gusting 5 17.2
2017-Aug-18 07:01 360 4 gusting 6 16.7
2017-Aug-18 06:46 360 0 gusting 7 16.1
2017-Aug-18 06:31 360 0 gusting 3 16.1
2017-Aug-18 06:16 360 0 gusting 3 15.6
2017-Aug-18 06:01 360 15.0
2017-Aug-18 05:46 360 15.0
2017-Aug-18 05:32 360 15.0
2017-Aug-18 05:16 360 0 gusting 3 14.4
2017-Aug-18 05:01 360 14.4
2017-Aug-18 04:46 360 13.9
2017-Aug-18 04:31 360 13.9
2017-Aug-18 04:14 360 13.9
2017-Aug-18 03:59 360 13.9
2017-Aug-18 03:44 360 13.9
2017-Aug-18 03:31 360 13.9
2017-Aug-18 03:23 360 13.9
2017-Aug-18 02:59 360 13.9
2017-Aug-18 02:43 360 13.9
2017-Aug-18 02:28 360 13.9
2017-Aug-18 02:13 360 13.9
2017-Aug-18 01:58 360 13.9
2017-Aug-18 01:43 360 14.4
2017-Aug-18 01:28 360 14.4
2017-Aug-18 01:13 360 14.4
2017-Aug-18 00:57 360 14.4
2017-Aug-18 00:43 360 14.4
2017-Aug-18 00:27 360 14.4
2017-Aug-18 00:12 360 14.4